AFL4563 UWSG-URWW

Flight info

Callsign AFL4563
Flight time N/A
Altitude 32000
Route KR1K KR P135 UROBO R807 RODUN RODUN1J
Aircraft A20N/M-SDE2E3FGHIRWXY/LB1

Departure

Time N/A
Airport Gagarin International Airport (UWSG)

Arrival

Time 2026-04-24 19:06
Airport Volgograd International Airport (URWW)
Time Latitude Longitude Altitude Speed Heading
2026-04-24 18:54 49.23856 44.89045 6471 ft 208 kts 207°
2026-04-24 18:55 49.21148 44.87499 6208 ft 207 kts 208°
2026-04-24 18:55 49.19799 44.86730 6002 ft 207 kts 208°
2026-04-24 18:55 49.18453 44.85963 5739 ft 206 kts 208°
2026-04-24 18:56 49.17110 44.85199 5472 ft 205 kts 208°
2026-04-24 18:56 49.15778 44.84441 5265 ft 204 kts 208°
2026-04-24 18:56 49.14467 44.83694 5139 ft 204 kts 208°
2026-04-24 18:56 49.13137 44.82939 4996 ft 203 kts 210°
2026-04-24 18:57 49.11813 44.82186 4861 ft 202 kts 210°
2026-04-24 18:57 49.10494 44.81437 4733 ft 202 kts 210°
2026-04-24 18:57 49.09199 44.80633 4602 ft 199 kts 215°
2026-04-24 18:57 49.07960 44.79691 4484 ft 198 kts 216°
2026-04-24 18:58 49.06730 44.78748 4344 ft 198 kts 216°
2026-04-24 18:58 49.05499 44.77807 4210 ft 198 kts 216°
2026-04-24 18:58 49.04263 44.76866 4078 ft 199 kts 216°
2026-04-24 18:58 49.03026 44.75925 3950 ft 198 kts 216°
2026-04-24 18:59 49.01789 44.74988 3815 ft 198 kts 216°
2026-04-24 18:59 49.00566 44.74064 3686 ft 199 kts 216°
2026-04-24 18:59 48.99329 44.73133 3629 ft 198 kts 216°
2026-04-24 18:59 48.98093 44.72203 3623 ft 198 kts 216°
2026-04-24 19:00 48.96858 44.71271 3618 ft 197 kts 215°
2026-04-24 19:00 48.95621 44.70342 3622 ft 198 kts 215°
2026-04-24 19:00 48.94384 44.69412 3617 ft 198 kts 215°
2026-04-24 19:00 48.93150 44.68484 3619 ft 198 kts 216°
2026-04-24 19:01 48.91934 44.67570 3621 ft 198 kts 216°
2026-04-24 19:01 48.90692 44.66640 3417 ft 200 kts 216°
2026-04-24 19:01 48.89474 44.65662 3322 ft 193 kts 224°
2026-04-24 19:01 48.88487 44.64334 3325 ft 187 kts 235°
2026-04-24 19:02 48.87678 44.62808 3322 ft 184 kts 242°
2026-04-24 19:02 48.86982 44.61179 3323 ft 183 kts 245°
2026-04-24 19:02 48.86349 44.59498 3321 ft 182 kts 248°
2026-04-24 19:02 48.85762 44.57819 3154 ft 177 kts 248°
2026-04-24 19:03 48.85211 44.56170 2748 ft 175 kts 249°
2026-04-24 19:03 48.84670 44.54502 2280 ft 176 kts 248°
2026-04-24 19:03 48.84136 44.52830 2022 ft 177 kts 248°
2026-04-24 19:03 48.83600 44.51143 1993 ft 177 kts 248°
2026-04-24 19:04 48.83071 44.49479 1994 ft 177 kts 248°
2026-04-24 19:04 48.82538 44.47798 1993 ft 176 kts 248°
2026-04-24 19:04 48.82008 44.46125 1976 ft 176 kts 248°
2026-04-24 19:04 48.81483 44.44460 1836 ft 174 kts 248°
2026-04-24 19:05 48.80957 44.42799 1552 ft 176 kts 248°
2026-04-24 19:05 48.80420 44.41108 1323 ft 179 kts 247°
2026-04-24 19:05 48.79892 44.39441 1150 ft 168 kts 246°
2026-04-24 19:05 48.79422 44.37965 846 ft 150 kts 246°
2026-04-24 19:06 48.78988 44.36594 676 ft 140 kts 246°
2026-04-24 19:06 48.78567 44.35268 532 ft 140 kts 246°
2026-04-24 19:06 48.78163 44.33989 462 ft 105 kts 244°
2026-04-24 19:06 48.77997 44.33475 454 ft 26 kts 244°
2026-04-24 19:07 48.77919 44.33223 450 ft 28 kts 244°
2026-04-24 19:07 48.77830 44.32949 447 ft 29 kts 245°
2026-04-24 19:07 48.77770 44.32764 432 ft 30 kts 244°
2026-04-24 19:07 48.77648 44.32377 433 ft 31 kts 244°
2026-04-24 19:08 48.77549 44.32067 420 ft 33 kts 245°
2026-04-24 19:08 48.77546 44.31785 416 ft 21 kts 330°
2026-04-24 19:08 48.77563 44.31772 428 ft 0 kts 333°
2026-04-24 19:09 48.77569 44.31767 428 ft 4 kts 333°
2026-04-24 19:09 48.77613 44.31744 426 ft 10 kts 356°
2026-04-24 19:10 48.77662 44.31829 430 ft 14 kts 62°
2026-04-24 19:10 48.77714 44.31990 421 ft 20 kts 64°
2026-04-24 19:10 48.77781 44.32208 428 ft 25 kts 64°
2026-04-24 19:10 48.77864 44.32473 430 ft 30 kts 64°
2026-04-24 19:11 48.77959 44.32774 430 ft 34 kts 64°
2026-04-24 19:11 48.78066 44.33110 447 ft 37 kts 65°
2026-04-24 19:11 48.78180 44.33473 452 ft 40 kts 64°
2026-04-24 19:11 48.78296 44.33846 456 ft 40 kts 61°
2026-04-24 19:12 48.78413 44.34190 461 ft 23 kts 40°
2026-04-24 19:12 48.78505 44.34180 458 ft 11 kts 342°
2026-04-24 19:12 48.78604 44.34143 456 ft 18 kts 354°
2026-04-24 19:12 48.78675 44.34276 458 ft 18 kts 66°
2026-04-24 19:13 48.78707 44.34398 462 ft 20 kts 69°
2026-04-24 19:13 48.78780 44.34675 469 ft 21 kts 69°
2026-04-24 19:13 48.78843 44.34896 474 ft 25 kts 52°
2026-04-24 19:13 48.78957 44.34921 474 ft 1 kts 23°
2026-04-24 19:14 48.78968 44.34948 475 ft 11 kts 61°
2026-04-24 19:14 48.78996 44.35123 473 ft 9 kts 129°
2026-04-24 19:14 48.78984 44.35133 475 ft 0 kts 161°